• In Hungary
  • List of Countries
  • For 7 days
  • Water Temperature
  • Satellite Maps
  • Weather Map
  • News
  • Weather Widgets
  • user-avatar
    Login

    Hourly Weather Lanaken

    Today, 13 December, Wednesday

    Time Temperature Precipitation Wind Pressure Humidity
    00:00 -1°C° 0 mm 5 mps 754 mmHg 90%
    01:00 0°C° 0 mm 5 mps 753 mmHg 89%
    02:00 0°C° 0 mm 5 mps 752 mmHg 88%
    03:00 -1°C° 0 mm 6 mps 752 mmHg 88%
    04:00 -1°C° 0 mm 6 mps 751 mmHg 86%
    05:00 0°C° 0 mm 7 mps 750 mmHg 85%
    06:00 +1°C° 0 mm 6 mps 750 mmHg 84%
    07:00 0°C° 0.6 mm 7 mps 749 mmHg 83%
    08:00 +1°C° 0.6 mm 8 mps 748 mmHg 82%
    09:00 +2°C° 0.6 mm 9 mps 747 mmHg 82%
    10:00 +2°C° 1.2 mm 9 mps 746 mmHg 82%
    11:00 +2°C° 1.2 mm 9 mps 745 mmHg 83%
    12:00 +2°C° 1.2 mm 9 mps 744 mmHg 84%
    13:00 +2°C° 0.9 mm 8 mps 744 mmHg 86%
    14:00 +4°C° 0.9 mm 7 mps 743 mmHg 89%
    15:00 +4°C° 0.9 mm 6 mps 742 mmHg 91%
    16:00 +4°C° 0.3 mm 7 mps 741 mmHg 89%
    17:00 +5°C° 0.3 mm 8 mps 740 mmHg 87%
    18:00 +5°C° 0.3 mm 9 mps 738 mmHg 86%
    19:00 +5°C° 2.5 mm 9 mps 738 mmHg 86%
    20:00 +5°C° 2.5 mm 9 mps 737 mmHg 87%
    21:00 +5°C° 2.5 mm 9 mps 736 mmHg 87%
    22:00 +4°C° 0.4 mm 8 mps 737 mmHg 85%
    23:00 +3°C° 0.4 mm 7 mps 737 mmHg 83%

    Tomorrow, 14 December, Thursday

    Time Temperature Precipitation Wind Pressure Humidity
    00:00 +2°C° 0.4 mm 5 mps 737 mmHg 81%
    01:00 +2°C° 1.4 mm 6 mps 738 mmHg 80%
    02:00 +1°C° 1.4 mm 8 mps 738 mmHg 79%
    03:00 +1°C° 1.4 mm 9 mps 738 mmHg 78%
    04:00 0°C° 0.2 mm 8 mps 739 mmHg 76%
    05:00 0°C° 0.2 mm 8 mps 740 mmHg 74%
    06:00 -1°C° 0.2 mm 7 mps 741 mmHg 72%
    07:00 0°C° 0 mm 7 mps 741 mmHg 73%
    08:00 0°C° 0 mm 7 mps 741 mmHg 75%
    09:00 0°C° 0 mm 7 mps 742 mmHg 76%
    10:00 +2°C° 0.2 mm 7 mps 741 mmHg 76%
    11:00 +2°C° 0.2 mm 7 mps 741 mmHg 77%
    12:00 +3°C° 0.2 mm 7 mps 741 mmHg 77%
    13:00 +3°C° 0.2 mm 7 mps 740 mmHg 78%
    14:00 +3°C° 0.2 mm 6 mps 740 mmHg 80%
    15:00 +2°C° 0.2 mm 5 mps 739 mmHg 81%
    16:00 +2°C° 0.2 mm 5 mps 739 mmHg 83%
    17:00 +3°C° 0.2 mm 4 mps 738 mmHg 85%
    18:00 +3°C° 0.2 mm 4 mps 738 mmHg 87%
    19:00 +1°C° 0.1 mm 4 mps 738 mmHg 86%
    20:00 +1°C° 0.1 mm 4 mps 738 mmHg 86%
    21:00 +1°C° 0.1 mm 4 mps 738 mmHg 85%
    22:00 +1°C° 0 mm 4 mps 738 mmHg 85%
    23:00 0°C° 0 mm 4 mps 738 mmHg 85%

    Day after tomorrow, 15 December, Friday

    Time Temperature Precipitation Wind Pressure Humidity
    00:00 0°C° 0 mm 4 mps 739 mmHg 84%
    01:00 0°C° 0 mm 4 mps 739 mmHg 85%
    02:00 -1°C° 0 mm 4 mps 739 mmHg 85%
    03:00 -1°C° 0 mm 4 mps 739 mmHg 85%
    04:00 0°C° 0 mm 4 mps 739 mmHg 86%
    05:00 0°C° 0 mm 4 mps 739 mmHg 87%
    06:00 0°C° 0 mm 4 mps 739 mmHg 88%
    07:00 0°C° 0.1 mm 4 mps 739 mmHg 89%
    08:00 +1°C° 0.1 mm 4 mps 740 mmHg 90%
    09:00 +1°C° 0.1 mm 4 mps 740 mmHg 90%
    10:00 +3°C° 0 mm 4 mps 740 mmHg 89%
    11:00 +3°C° 0 mm 4 mps 741 mmHg 87%
    12:00 +4°C° 0 mm 4 mps 741 mmHg 85%
    13:00 +4°C° 0.1 mm 3 mps 741 mmHg 87%
    14:00 +4°C° 0.1 mm 2 mps 741 mmHg 89%
    15:00 +4°C° 0.1 mm 2 mps 742 mmHg 91%
    16:00 +3°C° 0 mm 2 mps 742 mmHg 92%
    17:00 +3°C° 0 mm 2 mps 743 mmHg 93%
    18:00 +2°C° 0 mm 2 mps 744 mmHg 94%
    19:00 +2°C° 0 mm 2 mps 744 mmHg 95%
    20:00 +2°C° 0 mm 2 mps 745 mmHg 95%
    21:00 +2°C° 0 mm 2 mps 746 mmHg 95%
    22:00 +2°C° 0 mm 2 mps 746 mmHg 94%
    23:00 +2°C° 0 mm 2 mps 746 mmHg 94%

    16 December, Saturday

    Time Temperature Precipitation Wind Pressure Humidity
    00:00 +2°C° 0 mm 2 mps 747 mmHg 93%
    01:00 +1°C° 0 mm 2 mps 747 mmHg 92%
    02:00 0°C° 0 mm 3 mps 748 mmHg 91%
    03:00 0°C° 0 mm 3 mps 748 mmHg 91%
    04:00 0°C° 0.1 mm 3 mps 749 mmHg 90%
    05:00 0°C° 0.1 mm 3 mps 749 mmHg 90%
    06:00 -1°C° 0.1 mm 4 mps 750 mmHg 90%
    07:00 0°C° 0.2 mm 4 mps 750 mmHg 89%
    08:00 0°C° 0.2 mm 4 mps 751 mmHg 88%
    09:00 0°C° 0.2 mm 4 mps 751 mmHg 88%
    10:00 +1°C° 0.1 mm 4 mps 752 mmHg 84%
    11:00 +3°C° 0.1 mm 4 mps 752 mmHg 80%
    12:00 +3°C° 0.1 mm 5 mps 752 mmHg 77%
    13:00 +3°C° 0.2 mm 4 mps 753 mmHg 78%
    14:00 +3°C° 0.2 mm 4 mps 753 mmHg 79%
    15:00 +1°C° 0.2 mm 4 mps 754 mmHg 80%
    16:00 +1°C° 0.2 mm 4 mps 754 mmHg 82%
    17:00 +1°C° 0.2 mm 4 mps 755 mmHg 84%
    18:00 0°C° 0.2 mm 4 mps 755 mmHg 86%
    19:00 0°C° 0.1 mm 4 mps 756 mmHg 87%
    20:00 0°C° 0.1 mm 4 mps 757 mmHg 88%
    21:00 0°C° 0.1 mm 4 mps 757 mmHg 89%
    22:00 0°C° 0.2 mm 4 mps 757 mmHg 89%
    23:00 0°C° 0.2 mm 4 mps 758 mmHg 90%

    17 December, Sunday

    Time Temperature Precipitation Wind Pressure Humidity
    00:00 0°C° 0.2 mm 4 mps 758 mmHg 91%
    01:00 0°C° 0.4 mm 4 mps 758 mmHg 91%
    02:00 0°C° 0.4 mm 4 mps 758 mmHg 92%
    03:00 +1°C° 0.4 mm 3 mps 758 mmHg 92%
    04:00 +1°C° 0.3 mm 3 mps 759 mmHg 94%
    05:00 0°C° 0.3 mm 3 mps 759 mmHg 95%
    06:00 +1°C° 0.3 mm 2 mps 759 mmHg 96%
    07:00 +1°C° 0 mm 2 mps 760 mmHg 95%
    08:00 +1°C° 0 mm 2 mps 761 mmHg 94%
    09:00 +1°C° 0 mm 2 mps 761 mmHg 93%
    10:00 +2°C° 0 mm 2 mps 761 mmHg 91%
    11:00 +3°C° 0 mm 2 mps 762 mmHg 89%
    12:00 +3°C° 0 mm 3 mps 762 mmHg 87%
    13:00 +3°C° 0 mm 2 mps 762 mmHg 88%
    14:00 +3°C° 0 mm 2 mps 763 mmHg 90%
    15:00 +3°C° 0 mm 2 mps 763 mmHg 91%
    16:00 +2°C° 0 mm 2 mps 763 mmHg 91%
    17:00 +2°C° 0 mm 2 mps 764 mmHg 92%
    18:00 +1°C° 0 mm 2 mps 764 mmHg 92%
    19:00 0°C° 0 mm 3 mps 764 mmHg 92%
    20:00 0°C° 0 mm 3 mps 765 mmHg 93%
    21:00 0°C° 0 mm 3 mps 765 mmHg 93%
    22:00 0°C° 0 mm 3 mps 765 mmHg 92%
    23:00 -1°C° 0 mm 4 mps 764 mmHg 92%

    18 December, Monday

    Time Temperature Precipitation Wind Pressure Humidity
    00:00 0°C° 0 mm 4 mps 764 mmHg 92%
    01:00 0°C° 0 mm 5 mps 763 mmHg 90%
    02:00 -1°C° 0 mm 6 mps 763 mmHg 88%
    03:00 -1°C° 0 mm 7 mps 762 mmHg 86%
    04:00 0°C° 1.1 mm 7 mps 761 mmHg 88%
    05:00 0°C° 1.1 mm 7 mps 760 mmHg 90%
    06:00 0°C° 1.1 mm 7 mps 760 mmHg 92%
    07:00 +2°C° 0.7 mm 7 mps 759 mmHg 93%
    08:00 +3°C° 0.7 mm 6 mps 759 mmHg 95%
    09:00 +5°C° 0.7 mm 5 mps 759 mmHg 96%
    10:00 +5°C° 0.2 mm 5 mps 759 mmHg 95%
    11:00 +6°C° 0.2 mm 5 mps 759 mmHg 94%
    12:00 +7°C° 0.2 mm 5 mps 759 mmHg 94%
    13:00 +6°C° 0.1 mm 5 mps 759 mmHg 93%
    14:00 +6°C° 0.1 mm 4 mps 760 mmHg 93%
    15:00 +6°C° 0.1 mm 4 mps 760 mmHg 93%
    16:00 +5°C° 0 mm 4 mps 761 mmHg 93%
    17:00 +4°C° 0 mm 3 mps 762 mmHg 94%
    18:00 +3°C° 0 mm 3 mps 762 mmHg 94%
    19:00 +3°C° 0 mm 3 mps 763 mmHg 94%
    20:00 +4°C° 0 mm 2 mps 764 mmHg 95%
    21:00 +3°C° 0 mm 2 mps 764 mmHg 95%
    22:00 +3°C° 0 mm 2 mps 765 mmHg 95%
    23:00 +3°C° 0 mm 2 mps 765 mmHg 95%
    Show more